N6OIL Weather Reports


Display with metric or nautical units.
time (UTC)temp
F
wind
direction
speed
MPH
gust
MPH
rain 1hr
in
rain 24hr
in
rain mn
in
humidity
%
barometer
mb
20260902083705 56 321 2.0 4.0 0.00 0.00 0.00 49 1016.8
20260902083204 56 321 2.0 4.0 0.00 0.00 0.00 50 1017.0
20260902082704 57 321 2.0 4.0 0.00 0.00 0.00 52 1017.0
20260902082204 58 321 2.0 3.0 0.00 0.00 0.00 51 1017.0
20260902081706 58 321 2.0 4.0 0.00 0.00 0.00 51 1017.0
20260902081204 59 321 2.0 4.0 0.00 0.00 0.00 50 1017.0
20260902080705 60 321 2.0 4.0 0.00 0.00 0.00 50 1017.0
20260902075704 60 321 3.0 5.0 0.00 0.00 0.00 48 1017.0
20260902075205 61 321 3.0 6.0 0.00 0.00 0.00 48 1017.0
20260902074704 61 321 4.0 6.0 0.00 0.00 0.00 47 1017.0
20260902074204 61 321 4.0 6.0 0.00 0.00 0.00 47 1017.0
20260902073706 60 321 4.0 5.0 0.00 0.00 0.00 48 1016.8
20260902073204 60 323 3.0 5.0 0.00 0.00 0.00 49 1017.0
20260902072704 60 323 3.0 5.0 0.00 0.00 0.00 48 1016.8
20260902072204 60 323 3.0 4.0 0.00 0.00 0.00 48 1016.8
20260902071704 60 323 2.0 4.0 0.00 0.00 0.00 48 1016.8
20260902071204 60 323 2.0 4.0 0.00 0.00 0.00 49 1016.7
20260902070705 61 323 2.0 4.0 0.00 0.00 0.00 50 1016.7
20260902070204 61 323 2.0 4.0 0.00 0.00 0.00 50 1016.7
20260902065704 62 323 2.0 4.0 0.00 0.00 0.00 50 1016.7
20260902065204 62 323 2.0 9.0 0.00 0.00 0.00 50 1016.7
20260902064204 62 323 5.0 12.0 0.00 0.00 0.00 50 1016.6
20260902063704 63 323 6.0 12.0 0.00 0.00 0.00 50 1016.6
20260902062704 63 323 7.0 17.0 0.00 0.00 0.00 50 1016.5
20260902062204 63 325 7.0 17.0 0.00 0.00 0.00 51 1016.6
20260902061704 63 330 9.0 17.0 0.00 0.00 0.00 51 1016.5
20260902060704 63 327 9.0 13.0 0.00 0.00 0.00 52 1016.5
20260902060204 63 334 9.0 14.0 0.00 0.00 0.00 51 1016.5
20260902055704 64 329 8.0 15.0 0.00 0.00 0.00 51 1016.5
20260902054705 64 315 10.0 15.0 0.00 0.00 0.00 52 1016.4
20260902053705 64 336 9.0 15.0 0.00 0.00 0.00 51 1016.4
20260902053204 64 309 9.0 13.0 0.00 0.00 0.00 50 1016.4
20260902052704 65 330 9.0 14.0 0.00 0.00 0.00 49 1016.5
20260902052204 65 332 9.0 14.0 0.00 0.00 0.00 48 1016.4
20260902051704 65 323 9.0 16.0 0.00 0.00 0.00 48 1016.4
20260902051204 65 321 9.0 16.0 0.00 0.00 0.00 49 1016.3
20260902050704 65 301 10.0 16.0 0.00 0.00 0.00 49 1016.3
20260902050205 65 314 10.0 16.0 0.00 0.00 0.00 49 1016.2
20260902045704 65 319 11.0 16.0 0.00 0.00 0.00 50 1016.3
20260902045204 65 307 11.0 16.0 0.00 0.00 0.00 50 1016.3
20260902044705 65 302 11.0 16.0 0.00 0.00 0.00 48 1016.3
20260902044204 66 316 11.0 14.0 0.00 0.00 0.00 46 1016.3
20260902043704 66 313 10.0 14.0 0.00 0.00 0.00 45 1016.3
20260902043204 66 315 10.0 14.0 0.00 0.00 0.00 44 1016.2
20260902042704 67 320 10.0 14.0 0.00 0.00 0.00 42 1016.2
20260902042204 67 313 10.0 14.0 0.00 0.00 0.00 41 1016.1
20260902041704 67 311 10.0 14.0 0.00 0.00 0.00 40 1016.1
20260902041204 67 313 9.0 14.0 0.00 0.00 0.00 38 1016.1
20260902040704 67 306 8.0 12.0 0.00 0.00 0.00 37 1016.1
20260902040204 68 316 7.0 14.0 0.00 0.00 0.00 37 1016.1
20260902035704 68 313 8.0 14.0 0.00 0.00 0.00 36 1016.0
20260902034704 69 298 9.0 14.0 0.00 0.00 0.00 34 1015.9
20260902033704 69 315 8.0 15.0 0.00 0.00 0.00 31 1015.7
20260902033204 69 315 8.0 15.0 0.00 0.00 0.00 30 1015.5
20260902032704 70 307 9.0 14.0 0.00 0.00 0.00 29 1015.4
20260902032204 70 334 9.0 14.0 0.00 0.00 0.00 30 1015.4
20260902031704 70 323 7.0 12.0 0.00 0.00 0.00 30 1015.3
20260902030704 72 289 3.0 9.0 0.00 0.00 0.00 28 1015.3
20260902030204 73 288 4.0 10.0 0.00 0.00 0.00 27 1015.3
20260902025204 73 310 5.0 10.0 0.00 0.00 0.00 24 1015.3
20260902024704 74 292 5.0 12.0 0.00 0.00 0.00 25 1015.2
20260902024204 74 288 7.0 12.0 0.00 0.00 0.00 26 1015.2
20260902023704 74 278 7.0 12.0 0.00 0.00 0.00 25 1015.1
20260902023204 75 302 4.0 7.0 0.00 0.00 0.00 24 1015.1
20260902022704 75 296 2.0 7.0 0.00 0.00 0.00 24 1015.0
20260902021705 76 358 4.0 10.0 0.00 0.00 0.00 24 1015.0
20260902021204 76 358 6.0 14.0 0.00 0.00 0.00 23 1014.9
20260902020704 77 358 8.0 14.0 0.00 0.00 0.00 22 1014.9
20260902020204 77 358 9.0 14.0 0.00 0.00 0.00 22 1015.0
20260902015704 78 358 8.0 11.0 0.00 0.00 0.00 22 1015.0
20260902015203 78 358 8.0 14.0 0.00 0.00 0.00 21 1014.9
20260902014704 78 358 8.0 15.0 0.00 0.00 0.00 20 1015.0
20260902014205 78 358 8.0 15.0 0.00 0.00 0.00 20 1015.0
20260902013704 79 358 8.0 15.0 0.00 0.00 0.00 20 1015.0
20260902013204 79 358 8.0 16.0 0.00 0.00 0.00 18 1015.0
20260902012704 80 358 9.0 16.0 0.00 0.00 0.00 17 1014.9
20260902012205 80 319 10.0 16.0 0.00 0.00 0.00 17 1014.9
20260902005704 81 311 11.0 19.0 0.00 0.00 0.00 15 1014.9
20260902005204 81 321 11.0 19.0 0.00 0.00 0.00 14 1014.7
20260902004704 81 314 11.0 19.0 0.00 0.00 0.00 15 1014.9
20260902004220 82 298 11.0 19.0 0.00 0.00 0.00 14 1014.9
20260902003704 82 322 12.0 19.0 0.00 0.00 0.00 13 1015.0
20260902002704 83 337 10.0 15.0 0.00 0.00 0.00 13 1015.0
20260902002205 83 322 9.0 15.0 0.00 0.00 0.00 14 1015.0
20260902001704 83 294 8.0 16.0 0.00 0.00 0.00 14 1015.0
20260902001204 83 322 9.0 17.0 0.00 0.00 0.00 14 1015.0
20260902000704 83 319 10.0 17.0 0.00 0.00 0.00 14 1015.0
20260902000204 83 353 11.0 17.0 0.00 0.00 0.00 11 1015.0
20260901235704 83 3 10.0 16.0 0.00 0.00 0.00 10 1015.0
20260901235206 84 346 10.0 16.0 0.00 0.00 0.00 10 1015.0
20260901234704 84 339 10.0 16.0 0.00 0.00 0.00 10 1015.0
20260901234204 84 3 10.0 19.0 0.00 0.00 0.00 12 1015.0
20260901233206 84 22 11.0 19.0 0.00 0.00 0.00 11 1015.0
20260901232704 84 10 11.0 17.0 0.00 0.00 0.00 10 1015.0
20260901232204 84 9 9.0 17.0 0.00 0.00 0.00 10 1015.1
20260901231704 84 35 9.0 17.0 0.00 0.00 0.00 10 1015.0
20260901231205 84 306 10.0 17.0 0.00 0.00 0.00 15 1015.1
20260901230704 84 309 11.0 21.0 0.00 0.00 0.00 16 1015.1
20260901230204 83 321 11.0 21.0 0.00 0.00 0.00 16 1015.1
20260901225206 84 313 10.0 18.0 0.00 0.00 0.00 17 1015.0
20260901224704 84 304 11.0 19.0 0.00 0.00 0.00 16 1015.1
20260901224205 84 348 11.0 19.0 0.00 0.00 0.00 17 1015.1
20260901223704 84 331 12.0 19.0 0.00 0.00 0.00 17 1015.2
20260901223206 83 288 12.0 19.0 0.00 0.00 0.00 17 1015.2
20260901222704 84 316 11.0 19.0 0.00 0.00 0.00 16 1015.2
20260901222204 84 344 10.0 19.0 0.00 0.00 0.00 17 1015.2
20260901221204 84 333 11.0 22.0 0.00 0.00 0.00 17 1015.3
20260901220204 84 329 9.0 17.0 0.00 0.00 0.00 17 1015.3
20260901215705 84 340 9.0 17.0 0.00 0.00 0.00 16 1015.3
20260901215205 85 353 10.0 17.0 0.00 0.00 0.00 16 1015.4
20260901214705 85 348 8.0 22.0 0.00 0.00 0.00 14 1015.4
20260901214204 84 340 10.0 22.0 0.00 0.00 0.00 17 1015.5
20260901213205 84 304 11.0 16.0 0.00 0.00 0.00 18 1015.5
20260901212205 85 294 10.0 16.0 0.00 0.00 0.00 18 1015.6
20260901211704 84 294 8.0 17.0 0.00 0.00 0.00 17 1015.7
20260901211204 84 331 9.0 17.0 0.00 0.00 0.00 18 1015.6
20260901210706 84 358 8.0 17.0 0.00 0.00 0.00 18 1015.7
20260901210204 85 314 7.0 17.0 0.00 0.00 0.00 18 1015.7
20260901205705 85 33 9.0 18.0 0.00 0.00 0.00 14 1015.7
20260901205204 84 353 11.0 18.0 0.00 0.00 0.00 13 1015.9
20260901204704 84 45 10.0 18.0 0.00 0.00 0.00 14 1015.9
20260901204204 85 358 10.0 19.0 0.00 0.00 0.00 13 1015.9
20260901203705 84 11 11.0 19.0 0.00 0.00 0.00 14 1015.9
20260901203204 84 18 12.0 19.0 0.00 0.00 0.00 14 1015.9
20260901202704 83 353 11.0 18.0 0.00 0.00 0.00 17 1016.0
20260901202204 84 15 11.0 19.0 0.00 0.00 0.00 15 1016.1
20260901201704 83 353 11.0 19.0 0.00 0.00 0.00 16 1016.1
20260901201205 84 19 11.0 19.0 0.00 0.00 0.00 16 1016.2
20260901200204 84 10 11.0 17.0 0.00 0.00 0.00 16 1016.3
20260901195204 83 342 8.0 18.0 0.00 0.00 0.00 16 1016.4
20260901194704 84 46 10.0 19.0 0.00 0.00 0.00 15 1016.4
20260901194204 84 301 11.0 19.0 0.00 0.00 0.00 16 1016.4
20260901193704 83 349 11.0 19.0 0.00 0.00 0.00 16 1016.5
20260901192704 83 3 5.0 13.0 0.00 0.00 0.00 17 1016.7
20260901192204 82 121 3.0 8.0 0.00 0.00 0.00 19 1016.6
20260901191704 82 231 4.0 8.0 0.00 0.00 0.00 21 1016.8
20260901191204 81 231 4.0 8.0 0.00 0.00 0.00 21 1016.8
20260901190703 82 233 3.0 5.0 0.00 0.00 0.00 21 1016.7
20260901190204 82 237 2.0 9.0 0.00 0.00 0.00 22 1017.0
20260901185705 81 240 3.0 9.0 0.00 0.00 0.00 21 1017.0
20260901184705 81 232 2.0 10.0 0.00 0.00 0.00 22 1017.1
20260901184204 80 237 3.0 10.0 0.00 0.00 0.00 22 1017.2
20260901183704 80 240 3.0 6.0 0.00 0.00 0.00 21 1017.2
20260901183204 80 236 2.0 5.0 0.00 0.00 0.00 21 1017.2
20260901182705 80 247 2.0 6.0 0.00 0.00 0.00 21 1017.2
20260901182204 79 248 2.0 7.0 0.00 0.00 0.00 21 1017.3
20260901181704 79 248 3.0 7.0 0.00 0.00 0.00 21 1017.3
20260901181204 79 238 4.0 7.0 0.00 0.00 0.00 19 1017.3
20260901180704 80 222 3.0 7.0 0.00 0.00 0.00 20 1017.3
20260901180204 79 223 2.0 8.0 0.00 0.00 0.00 21 1017.3
20260901175704 78 103 2.0 8.0 0.00 0.00 0.00 20 1017.3
20260901175204 78 103 3.0 8.0 0.00 0.00 0.00 20 1017.3
20260901174704 78 103 4.0 8.0 0.00 0.00 0.00 20 1017.3
20260901174204 77 117 4.0 10.0 0.00 0.00 0.00 20 1017.3
20260901173704 77 118 5.0 11.0 0.00 0.00 0.00 21 1017.3
20260901173204 76 118 5.0 11.0 0.00 0.00 0.00 22 1017.3
20260901172704 76 148 5.0 11.0 0.00 0.00 0.00 22 1017.3
20260901171704 77 142 4.0 8.0 0.00 0.00 0.00 23 1017.2
20260901171204 77 141 3.0 10.0 0.00 0.00 0.00 24 1017.2
20260901170704 77 141 2.0 10.0 0.00 0.00 0.00 25 1017.2
20260901170204 76 141 3.0 10.0 0.00 0.00 0.00 29 1017.1
20260901165704 76 142 3.0 8.0 0.00 0.00 0.00 29 1017.1
20260901165205 76 167 3.0 6.0 0.00 0.00 0.00 29 1017.0
20260901164705 76 169 2.0 4.0 0.00 0.00 0.00 28 1017.0
20260901164205 76 286 2.0 4.0 0.00 0.00 0.00 30 1017.0
20260901163704 75 286 2.0 4.0 0.00 0.00 0.00 30 1017.0
20260901163205 75 286 1.0 3.0 0.00 0.00 0.00 32 1017.0
20260901162705 74 286 1.0 5.0 0.00 0.00 0.00 32 1017.0
20260901162204 73 286 2.0 5.0 0.00 0.00 0.00 33 1017.0
20260901161704 72 286 2.0 7.0 0.00 0.00 0.00 34 1016.8
20260901161204 72 295 3.0 9.0 0.00 0.00 0.00 36 1016.8
20260901160704 71 313 4.0 9.0 0.00 0.00 0.00 36 1016.8
20260901160205 71 284 3.0 6.0 0.00 0.00 0.00 36 1016.8
20260901155704 71 314 3.0 6.0 0.00 0.00 0.00 38 1016.7
20260901155205 70 314 3.0 9.0 0.00 0.00 0.00 39 1016.8
20260901154705 69 313 4.0 9.0 0.00 0.00 0.00 38 1016.8
20260901154204 69 315 5.0 9.0 0.00 0.00 0.00 40 1016.8
20260901153205 69 326 5.0 9.0 0.00 0.00 0.00 39 1016.8
20260901152704 69 309 5.0 9.0 0.00 0.00 0.00 37 1017.0
20260901151704 69 317 4.0 9.0 0.00 0.00 0.00 37 1016.8
20260901150205 68 318 2.0 8.0 0.00 0.00 0.00 33 1016.8
20260901145704 67 326 4.0 8.0 0.00 0.00 0.00 30 1016.7
20260901145204 67 327 4.0 8.0 0.00 0.00 0.00 28 1016.8
20260901144704 66 329 4.0 9.0 0.00 0.00 0.00 26 1016.8
20260901144204 66 327 5.0 9.0 0.00 0.00 0.00 28 1016.8
20260901143704 65 321 5.0 8.0 0.00 0.00 0.00 28 1016.7
20260901143205 65 353 4.0 8.0 0.00 0.00 0.00 31 1016.7
20260901142204 64 358 4.0 5.0 0.00 0.00 0.00 31 1016.7
20260901141704 64 358 4.0 6.0 0.00 0.00 0.00 31 1016.6
20260901141204 63 353 3.0 7.0 0.00 0.00 0.00 33 1016.5
20260901140704 63 353 4.0 7.0 0.00 0.00 0.00 36 1016.5
20260901140204 63 358 4.0 8.0 0.00 0.00 0.00 37 1016.4
20260901135204 62 12 5.0 8.0 0.00 0.00 0.00 39 1016.2
20260901134205 61 3 5.0 10.0 0.00 0.00 0.00 46 1016.1
20260901133704 60 358 6.0 10.0 0.00 0.00 0.00 51 1016.2
20260901133204 60 12 6.0 10.0 0.00 0.00 0.00 55 1016.0
20260901132204 60 327 6.0 10.0 0.00 0.00 0.00 58 1015.9
20260901131705 61 322 6.0 10.0 0.00 0.00 0.00 58 1015.6
20260901130704 61 329 6.0 9.0 0.00 0.00 0.00 58 1015.5
20260901130204 61 327 5.0 9.0 0.00 0.00 0.00 57 1015.5
20260901125704 61 321 4.0 11.0 0.00 0.00 0.00 57 1015.5
20260901125204 61 307 5.0 13.0 0.00 0.00 0.00 57 1015.5
20260901124704 61 307 7.0 13.0 0.00 0.00 0.00 57 1015.4
20260901124205 61 304 8.0 12.0 0.00 0.00 0.00 58 1015.4
20260901123705 61 304 8.0 12.0 0.00 0.00 0.00 58 1015.5
20260901123204 61 295 8.0 12.0 0.00 0.00 0.00 59 1015.5
20260901122704 60 317 6.0 10.0 0.00 0.00 0.00 58 1015.6
20260901122204 60 293 6.0 10.0 0.00 0.00 0.00 58 1015.5
20260901121704 60 306 7.0 10.0 0.00 0.00 0.00 59 1015.5
20260901121204 60 304 7.0 10.0 0.00 0.00 0.00 59 1015.6
20260901120704 60 306 7.0 10.0 0.00 0.00 0.00 59 1015.5
20260901120204 60 304 6.0 9.0 0.00 0.00 0.00 59 1015.5
20260901115205 60 302 5.0 10.0 0.00 0.00 0.00 59 1015.6
20260901114204 61 312 6.0 12.0 0.00 0.00 0.00 58 1015.6
20260901113204 61 319 8.0 11.0 0.00 0.00 0.00 58 1015.6
20260901112704 60 294 6.0 10.0 0.00 0.00 0.00 59 1015.6
20260901112204 59 309 5.0 6.0 0.00 0.00 0.00 57 1015.7
20260901111704 59 326 4.0 5.0 0.00 0.00 0.00 57 1015.6
20260901111204 60 325 3.0 5.0 0.00 0.00 0.00 55 1015.6
20260901110704 60 325 3.0 5.0 0.00 0.00 0.00 55 1015.6
20260901110204 60 326 3.0 5.0 0.00 0.00 0.00 54 1015.6
20260901105204 61 326 4.0 5.0 0.00 0.00 0.00 53 1015.7
20260901104704 61 326 3.0 4.0 0.00 0.00 0.00 52 1015.7
20260901104205 61 326 3.0 4.0 0.00 0.00 0.00 50 1015.6
20260901103704 62 326 1.0 3.0 0.00 0.00 0.00 48 1015.7
20260901103204 62 326 1.0 4.0 0.00 0.00 0.00 45 1015.7
20260901102204 62 326 2.0 6.0 0.00 0.00 0.00 40 1015.7
20260901101705 62 326 4.0 6.0 0.00 0.00 0.00 38 1015.7
20260901101204 62 326 3.0 6.0 0.00 0.00 0.00 36 1015.6
20260901100704 62 326 3.0 6.0 0.00 0.00 0.00 36 1015.5
20260901100204 62 326 3.0 6.0 0.00 0.00 0.00 36 1015.6
20260901095704 62 321 3.0 6.0 0.00 0.00 0.00 38 1015.6
20260901094704 62 321 2.0 6.0 0.00 0.00 0.00 38 1015.6
20260901094204 62 321 3.0 6.0 0.00 0.00 0.00 38 1015.6
20260901093704 63 321 4.0 6.0 0.00 0.00 0.00 38 1015.4
20260901093204 63 321 4.0 9.0 0.00 0.00 0.00 37 1015.5
20260901092704 63 321 5.0 9.0 0.00 0.00 0.00 37 1015.5
20260901091205 64 315 3.0 6.0 0.00 0.00 0.00 34 1015.5
20260901090706 64 315 3.0 8.0 0.00 0.00 0.00 34 1015.5
20260901090204 63 315 4.0 8.0 0.00 0.00 0.00 34 1015.7
20260901085704 63 315 5.0 6.0 0.00 0.00 0.00 35 1015.7
20260901085204 63 315 4.0 6.0 0.00 0.00 0.00 35 1015.7
20260901084704 63 314 4.0 5.0 0.00 0.00 0.00 36 1015.7
20260901084204 63 314 3.0 5.0 0.00 0.00 0.00 37 1016.0